Content
SEND FEEDBACK

Daily
Averages
Monthly
Summary
United States of America

BARRINGTON, ILLINOIS


Home > North America > United States > Illinois
Elevation: 810 feet     Latitude: 42 10N     Longitude: 088 09W

WEATHER
 
SELECT A DAY
Number of Records: 196,484;   Date Range: 1/1/95 - 7/22/14
 
SHARE

PRINT THIS DATA

[ ← Previous Day ]
WEATHER ALMANAC - MARCH 12, 2014
[ Next Day → ]
[ °C ]   °F
Weather ElementAverageHighLow
Temperature27.6 °F34 °F (12:51 am)14 °F (10:51 pm)
Dewpoint18.5 °F28.9 °F (12:51 am)5 °F (9:51 pm)
Humidity69.9 %87 % (2:37 am)41 % (5:51 pm)
Barometer29.86 in30.13 in (10:51 pm)29.68 in (1:25 am)
Wind Speed17 mph27.6 mph (8:51 am)
Wind Gust34.5 mph (8:51 am)
Weather ElementAverage
Visibility6.3 mi
Wind DirectionENE (69 °)

Weather ElementTotal
Precipitation0.92 in
Heating Degree Days41 (Base 65)
Averaged from 40 records on March 12, 2014
WEATHER CONDITIONS BREAKOUT
WIND DIRECTION BREAKOUT
WEATHER BY HOUR - MARCH 12, 2014
[ °C ]   °F
Local TimeTemperatureDewpointHumidityBarometerVisibilityWind DirectionWind SpeedGust SpeedPrecipitationEventsConditions
12:51 AM34.0 °F28.9 °F82 %29.71 in2.5 miNE (40°)11.5 mph0.08 inSnowLight Snow
1:25 AM33.8 °F28.4 °F81 %29.68 in1.2 miNNE (20°)12.7 mph0.04 inSnowLight Snow
1:51 AM33.1 °F28.9 °F85 %29.69 in1.2 miNNE (20°)17.3 mph28.8 mph0.08 inSnowLight Snow
2:09 AM33.8 °F28.4 °F81 %29.69 in1.5 miNNE (20°)17.3 mph25.3 mph0.02 inSnowLight Snow
2:23 AM33.8 °F28.4 °F81 %29.70 in1.0 miNorth (10°)19.6 mph31.1 mph0.04 inSnowLight Snow
2:37 AM32.0 °F28.4 °F87 %29.70 in0.8 miNorth (10°)20.7 mph27.6 mph0.06 inSnowLight Snow
2:51 AM32.0 °F28.0 °F85 %29.72 in0.8 miNorth (10°)17.3 mph0.07 inSnowLight Snow
3:51 AM30.9 °F27.0 °F85 %29.73 in1.0 miNNE (20°)21.9 mph29.9 mph0.20 inSnowLight Snow
4:23 AM28.4 °F24.8 °F86 %29.71 in1.2 miNNE (30°)21.9 mph32.2 mph0.05 inSnowLight Snow
4:51 AM28.9 °F24.1 °F82 %29.75 in0.8 miNNE (30°)18.4 mph28.8 mph0.09 inSnowLight Snow
5:02 AM28.4 °F24.8 °F86 %29.73 in0.8 miNNE (30°)18.4 mph25.3 mph0.01 inSnowLight Snow
5:15 AM28.4 °F24.8 °F86 %29.74 in1.0 miNNE (30°)17.3 mph27.6 mph0.02 inSnowLight Snow
5:27 AM28.4 °F24.8 °F86 %29.74 in1.5 miNNE (20°)23.0 mph31.1 mph0.02 inSnowLight Snow
5:34 AM28.4 °F24.8 °F86 %29.73 in1.8 miNNE (20°)23.0 mph31.1 mph0.03 inSnowLight Snow
5:43 AM28.4 °F24.8 °F86 %29.74 in2.0 miNNE (20°)20.7 mph29.9 mph0.04 inSnowLight Snow
5:51 AM28.0 °F23.0 °F81 %29.76 in1.8 miNNE (20°)23.0 mph32.2 mph0.04 inSnowLight Snow
6:16 AM28.4 °F23.0 °F80 %29.74 in2.5 miNNE (20°)19.6 mph26.5 mph0.01 inSnowLight Snow
6:27 AM28.4 °F21.2 °F74 %29.74 in7.0 miNNE (20°)18.4 mph28.8 mph0.01 inSnowLight Snow
6:51 AM30.0 °F21.0 °F69 %29.78 in10.0 miNorth (10°)23.0 mph28.8 mph0.01 inOvercast
7:47 AM28.4 °F21.2 °F74 %29.78 in10.0 miNorth (10°)21.9 mph33.4 mphOvercast
7:51 AM28.9 °F21.0 °F72 %29.81 in10.0 miNorth (10°)19.6 mph33.4 mphOvercast
8:51 AM28.9 °F19.0 °F67 %29.85 in10.0 miNorth (10°)27.6 mph34.5 mphOvercast
9:51 AM27.0 °F18.0 °F69 %29.88 in10.0 miNNE (20°)23.0 mph34.5 mphOvercast
10:16 AM28.4 °F19.4 °F69 %29.86 in10.0 miNNE (30°)19.6 mph25.3 mphOvercast
10:51 AM27.0 °F18.0 °F69 %29.89 in10.0 miNorth (10°)18.4 mph32.2 mphOvercast
11:51 AM26.1 °F15.1 °F63 %29.93 in10.0 miNorth (10°)18.4 mph27.6 mphScattered Clouds
12:06 PM26.6 °F14.0 °F59 %29.91 in10.0 miNorth (360°)21.9 mph29.9 mphMostly Cloudy
12:38 PM26.6 °F12.2 °F55 %29.93 in10.0 miNorth (360°)13.8 mph24.2 mphMostly Cloudy
12:51 PM27.0 °F12.0 °F53 %29.96 in10.0 miNorth (350°)16.1 mph26.5 mphMostly Cloudy
1:51 PM27.0 °F12.0 °F53 %29.96 in10.0 miNNE (20°)18.4 mphOvercast
2:51 PM27.0 °F10.9 °F51 %29.97 in10.0 miNNE (20°)18.4 mph23.0 mphScattered Clouds
3:51 PM28.0 °F9.0 °F45 %29.99 in10.0 miNorth (10°)13.8 mphScattered Clouds
4:51 PM28.0 °F9.0 °F45 %30.02 in10.0 miNorth (10°)13.8 mph18.4 mphPartly Cloudy
5:51 PM27.0 °F6.1 °F41 %30.05 in10.0 miNorth (360°)12.7 mphPartly Cloudy
6:51 PM23.0 °F8.1 °F53 %30.07 in10.0 miNE (40°)11.5 mphPartly Cloudy
7:51 PM21.9 °F7.0 °F53 %30.10 in10.0 miNNE (30°)6.9 mphPartly Cloudy
8:51 PM19.9 °F6.1 °F55 %30.11 in10.0 miNNE (20°)8.1 mphClear
9:51 PM19.9 °F5.0 °F52 %30.12 in10.0 miNorth (10°)3.5 mphClear
10:51 PM14.0 °F5.0 °F67 %30.13 in10.0 miNorth (350°)3.5 mphClear
11:51 PM16.0 °F5.0 °F62 %30.13 in10.0 miNW (320°)4.6 mphClear
Hourly data recorded from KORD, located miles away from Barrington, Illinois







STORIES FROM OUR PARTNERS